{"data":{"norad_id":67043,"intl_designator":"2025-294P","name":"STARLINK-35901","alt_names":[],"object_type":"PAYLOAD","status":"ACTIVE","operator":null,"country":"US","launch_date":"2025-12-11","launch_site_code":"AFETR","launch_vehicle":null,"mission":null,"orbit_class":"UNKNOWN","rcs_meters":null,"size_class":null,"mass_kg":null,"dimensions":null,"purposes":["comms"],"wikipedia_slug":null,"has_3d_model":false,"image_url":null,"decayed_at":null,"tle_current":{"epoch":"2026-05-24T21:40:35.430240Z","epoch_age_seconds":94143,"freshness":"FRESH","line1":"1 67043U 25294P   26144.90318785  .00028200  00000+0  10290-2 0  9995","line2":"2 67043  43.0046 327.7926 0001703 290.2987  69.7682 15.27625034 26453","mean_motion":15.27625034,"eccentricity":0.0001703,"inclination_deg":43.0046,"raan_deg":327.7926,"arg_perigee_deg":290.2987,"mean_anomaly_deg":69.7682,"bstar":0.001029,"rev_number":2645,"period_min":94.263969753719,"perigee_km":481.7458143274,"apogee_km":484.08268838361,"semimajor_km":6861.0512513555,"source":"CELESTRAK","updated_at":"2026-05-25T13:38:21.438974Z"}}}